Location: Saint-Hippolyte
(43.6394°N, 4.7559°E)
Time: 15:15:07
(UTC+00:00)

Milstar 3 - Pass Details

Date: 24 October 2020
Orbit: 1101 x 5144 km, 28.2° (Epoch: 25 September)

Event Time Altitude Azimuth Distance (km) Brightness Sun altitude
Rises 18:41:34 0° 242° (WSW) 4,048 6.7 -22.1°
Reaches altitude 10° 18:44:54 10° 227° (SW) 2,965 5.6 -22.7°
Maximum altitude 18:50:03 23° 175° (S) 2,159 4.2 -23.6°
Enters shadow 18:51:54 21° 153° (SSE) 2,341 4.2 -24.0°
